Overview Statistics Trail Chart Weather Telemetry Raw packets
 

This is the latest recevied weather packets stored in our database for station/object WY7ATH-2. If no packets are shown the sender has not sent any weather packets the latest 10 day(s).

<< 8 9 10 11 12 13 14 >>
Time Temp. Humidity Pressure Rain* Wind** Luminosity Snow
1788325058 13.89° C - - 0 mm 0.45 m/s, 263° - -
1788324461 12.78° C - - 0 mm 0 m/s - -
1788323265 15° C - - 0 mm 0 m/s - -
1788322667 15.56° C - - 0 mm 0 m/s - -
1788322070 15° C - - 0 mm 0 m/s - -
1788321473 15° C - - 0 mm 0 m/s - -
1788320876 15° C - - 0 mm 0 m/s - -
1788320275 16.11° C - - 0 mm 0 m/s - -
1788319678 16.67° C - - 0 mm 0 m/s - -
1788316690 18.33° C - - 0.25 mm 0 m/s - -
1788316093 18.33° C - - 0.25 mm 3.58 m/s, 325° - -
1788315496 17.22° C - - 0.25 mm 2.24 m/s, 295° - -
1788314899 17.22° C - - 0.25 mm 0 m/s - -
1788313705 17.78° C - - 2.29 mm 0 m/s - -
1788313104 18.89° C - - 2.29 mm 0.89 m/s, 297° - -
1788311910 20° C - - 2.29 mm 2.68 m/s, 319° - -
1788308921 22.78° C - - 2.54 mm 6.71 m/s, 293° - -
1788308325 23.33° C - - 2.54 mm 6.71 m/s, 260° - -
1788307731 23.33° C - - 2.54 mm 7.6 m/s, 243° - -
1788307130 23.33° C - - 2.54 mm 4.02 m/s, 263° - -
1788305933 23.89° C - - 4.06 mm 5.81 m/s, 211° - -
1788304739 22.78° C - - 4.06 mm 8.05 m/s, 243° - -
1788304142 23.33° C - - 4.06 mm 5.81 m/s, 255° - -
1788303545 25° C - - 4.06 mm 4.92 m/s, 277° - -
1788302347 25° C - - 5.84 mm 7.15 m/s, 225° - -

* Rain latest hour (hover to see other rain measurements)
** Current wind speed in m/s (hover to see current wind gust speed)